星链-31337 (STARLINK-31337 )

导读 | 星芒AI

STARLINK-31337 是SpaceX星链计划中的一颗低轨通信卫星,属于第三代星链卫星(Starlink V1.5或后续版本)。该卫星旨在为全球用户提供高速互联网服务,支持偏远地区的网络接入。它运行在约550公里高度的近地轨道,配备先进相控阵天线和激光通信系统,以提升数据传输效率和网络稳定性。STARLINK-31337 的发射进一步增强了星链星座的覆盖能力和冗余性,为实现全球宽带覆盖目标做出贡献。

基本信息
目录编号:
58934
目录名称:
STARLINK-31337
国际标识:
2024-027D
轨道中心:
EARTH
卫星名称:
星链-31337
卫星全名:
星链-31337 (STARLINK-31337 )
卫星状态:
在轨 (已飞行630 天)
发射日期:
2024-02-10 UTC
国别 :
美国 (US)
星等 :
--
轨道信息
数据来源 国际轨道数据
星历时间: 2025-11-01T00:59:24+0800
10小时前
查看轨道信息
半长轴: 6853.376km
偏心率: 0.0001223
轨道倾角: 53.160°
近地点辐角 96.641°
升交点赤经 188.518°
平近点角 263.473°
近地点: 474.402km
远地点: 476.08km
周期: 94.106分钟
每日圈数: 15.301921
详细信息
固有亮度:
5
最大亮度:
0.3
卫星平台:
Starlink v2.0 mini
覆盖范围:
全球
运营商:
太空探索技术公司
运营商所在国:
美国
制造商(研发单位):
太空探索技术公司
制造商所在国:
美国
使用方式:
暂无
卫星简介
星链(Starlink)计划是由太空探索技术公司(SpaceX)提出的一个巨型低轨卫星互联网星座项目,计划在2019年至2024年间在太空搭建由约1.2万颗卫星组成的“星链”网络,其中1584颗将部署在地球上空550千米处的近地轨道,并从2020年开始工作。该卫星仍在工作。
2D轨道图
3D轨道图
轨道高度分析图
轨道倾角分析图
轨道综合分析图
查看轨道综合分析图